Kuchera_Ratio
0.0 0.0 0.0 0.0 0.0 0.0 0.0 0.0 0.0 0.0 0.0 0.0 0.0 0.0 0.0 0.0 0.0 0.0 0.0 0.0 0.0 0.0 0.0 0.0 0.0 0.0 0.0 0.0 0.0 0.0 0.0 0.0 0.0 0.0 0.0 0.0 0.0 0.0 0.0 0.0 0.0 0.0 1.7 3.7 0.0 4.5 10.7 0.0 0.0 3.7 4.7 0.0 0.0 0.0
0.0 0.0 0.0 0.0 0.0 0.0 0.0 0.0 0.0 0.0 0.0 0.0 0.0 0.0 0.0 0.0 0.0 0.0 0.0 0.0 0.0 0.0 0.0 0.0 0.0 0.0 0.0 0.0 0.0 0.0 0.0 0.0 0.0 0.0 0.0 0.0 0.0 0.0 0.0 3.7 0.0 3.1 0.0 0.0 0.0 6.5 0.0 0.0 0.0 0.0 0.0 0.0 0.7 0.0
0.0 0.0 0.0 0.0 0.0 0.0 0.0 0.0 0.0 0.0 0.0 0.0 0.0 0.0 0.0 0.0 0.0 0.0 0.0 0.0 0.0 0.0 0.0 0.0 0.0 0.0 0.0 0.0 0.0 0.0 0.0 0.0 0.0 0.0 0.0 0.0 0.0 0.0 0.0 0.0 0.0 0.0 0.0 0.0 0.1 0.0 0.0 0.0 0.0 0.0 0.0 0.0 0.0 0.0
0.0 0.0 0.0 0.0 0.0 0.0 0.0 0.0 0.0 0.0 0.0 0.0 0.0 0.0 0.0 0.0 0.0 0.0 0.0 0.0 0.0 0.0 0.0 0.0 0.0 0.0 0.0 0.0 0.0 0.0 0.0 0.0 0.0 0.0 0.0 0.0 0.0 0.0 0.0 0.0 0.0 0.0 0.0 1.7 4.3 0.0 0.0 0.0 0.0 0.0 0.0 0.5 0.0 0.0
0.0 0.0 0.0 0.0 0.0 0.0 0.0 0.0 0.0 0.0 0.0 0.0 0.0 0.0 0.0 0.0 0.0 0.0 0.0 0.0 0.0 0.0 0.0 0.0 0.0 0.0 0.0 0.0 0.0 0.0 0.0 0.0 0.0 0.0 0.0 0.0 0.0 0.0 0.0 0.0 0.0 0.0 0.0 3.1 5.9 0.1 0.0 0.3 0.0 0.0 0.7 0.3 0.0 0.9
0.0 0.0 0.0 0.0 0.0 0.0 0.0 0.0 0.0 0.0 0.0 0.0 0.0 0.0 0.0 0.0 0.0 0.0 0.0 0.0 0.0 0.0 0.0 0.9 0.0 0.0 0.0 0.0 0.0 0.0 0.0 0.0 0.0 0.0 0.0 0.0 0.0 0.0 0.0 0.0 0.0 0.0 0.0 0.0 2.7 0.0 0.0 0.0 0.0 0.0 0.9 0.1 0.0 0.3
0.0 0.0 0.0 0.0 0.0 0.0 0.0 0.0 0.0 0.0 0.0 0.0 0.0 0.0 0.0 0.0 0.0 0.0 0.0 0.0 0.0 0.0 0.0 0.0 0.0 0.0 0.0 0.0 0.0 0.0 0.0 0.0 0.0 0.0 0.0 0.0 0.0 0.0 0.0 0.0 0.0 0.0 0.0 0.0 0.0 0.0 4.7 0.7 4.9 0.3 0.1 0.7 1.5 1.3
0.0 0.0 0.0 0.0 0.0 0.0 0.0 0.0 0.0 0.0 0.0 0.0 0.0 0.0 0.0 0.0 0.0 0.0 0.0 0.0 0.0 0.0 0.0 0.0 4.3 1.1 0.0 0.0 0.0 0.0 0.0 0.0 0.0 0.0 0.0 0.0 0.0 0.0 0.7 0.0 0.0 0.0 0.0 0.0 0.0 0.0 0.0 1.1 1.7 2.9 1.5 1.3 3.7 4.9
0.0 0.0 0.0 0.0 0.0 0.0 0.0 0.0 0.0 0.0 0.0 0.0 0.0 0.0 0.0 0.0 0.0 0.0 0.0 0.0 0.0 0.0 0.0 0.0 3.7 8.5 0.0 0.0 0.0 0.0 0.0 1.7 0.0 0.0 0.0 0.0 0.0 4.7 0.0 0.0 0.0 0.0 0.0 0.0 0.0 0.0 0.0 3.3 4.7 4.1 3.1 2.9 4.1 5.7
0.0 0.0 0.0 0.0 0.0 0.0 0.0 0.0 0.0 0.0 0.0 0.0 0.0 0.0 5.5 0.0 0.0 0.0 0.0 0.0 0.0 0.0 0.0 0.0 0.0 4.1 0.0 0.0 0.0 0.0 0.0 3.7 8.1 0.0 0.0 0.7 0.0 0.0 0.0 0.0 0.0 0.0 0.0 0.0 0.1 2.5 1.1 3.1 2.9 2.7 2.3 1.3 1.7 3.5
0.0 0.0 0.0 0.0 0.0 0.0 0.0 0.0 0.0 0.0 0.0 0.0 1.5 5.5 0.0 0.0 0.0 0.0 3.7 0.3 0.0 0.9 0.0 0.0 0.0 1.7 0.0 1.9 4.1 0.0 5.1 1.7 8.3 3.5 4.9 4.7 1.1 0.0 0.0 0.0 0.0 0.0 0.0 0.0 0.0 0.0 0.0 0.0 0.3 2.1 3.7 3.3 4.1 5.3
0.0 0.0 0.0 0.0 0.0 0.0 0.0 0.0 0.0 0.0 0.0 0.0 0.0 0.0 0.0 0.0 0.0 5.3 6.3 1.5 0.0 3.1 0.0 0.0 0.0 0.0 0.0 0.0 0.0 0.0 6.3 3.7 10.7 0.0 7.3 6.5 0.0 0.0 0.0 0.0 0.0 0.0 0.0 0.0 0.0 0.0 0.0 0.0 0.0 1.3 3.5 5.1 6.5 8.5
0.0 0.0 0.0 0.0 0.0 0.0 0.0 0.0 0.0 0.0 0.0 0.0 0.0 4.3 1.9 3.9 11.3 11.1 14.0 7.1 7.3 3.5 1.7 0.3 3.9 0.0 0.0 0.0 2.5 3.5 9.9 7.7 0.0 8.5 7.1 0.0 0.0 0.0 0.0 0.0 0.0 0.0 0.0 0.0 0.0 0.0 0.5 3.7 4.3 5.9 10.5 13.4 14.5 15.8
0.0 0.0 0.0 0.0 0.0 0.0 0.0 0.0 0.0 0.0 0.0 0.7 5.5 13.2 10.1 12.5 7.1 4.3 2.1 2.7 2.1 1.5 0.1 0.0 2.7 0.0 0.0 4.3 4.9 9.9 2.5 0.5 10.9 12.3 8.1 0.0 0.0 0.0 0.0 0.0 0.0 2.1 4.9 5.9 8.9 9.7 12.2 13.6 14.9 15.2 15.5 15.6 16.5 17.5
0.0 0.0 0.0 0.0 0.0 0.0 0.0 0.0 0.0 0.0 0.0 5.5 2.7 13.2 11.7 8.3 6.1 7.5 4.1 2.1 2.9 0.0 1.5 0.0 0.0 0.0 1.9 9.1 4.5 5.5 12.1 12.2 6.5 5.3 0.0 0.0 0.3 0.0 1.9 1.1 3.3 8.3 11.9 12.2 12.2 14.1 15.4 15.9 16.0 16.3 16.2 15.6 15.5 17.2
0.0 0.0 0.0 0.0 0.0 0.0 0.0 0.0 0.0 0.0 0.0 1.9 4.5 10.5 6.7 7.1 9.1 7.1 6.5 7.1 0.7 0.1 0.0 0.0 2.1 6.3 8.1 4.5 8.5 9.9 8.5 9.7 3.7 0.0 0.0 0.0 4.5 4.5 5.7 5.9 8.3 10.7 12.4 12.6 13.2 14.6 15.7 15.9 16.0 15.5 15.5 14.8 16.9 16.8
0.0 0.5 0.0 0.0 0.0 0.0 0.0 0.0 0.0 0.0 2.3 4.9 10.5 5.9 5.7 6.9 8.7 7.7 4.5 5.7 0.1 2.7 5.5 0.0 8.5 9.1 0.5 5.9 7.5 0.0 6.7 0.5 0.0 0.0 0.0 0.0 5.3 7.3 7.9 8.9 12.2 13.3 13.1 12.9 13.9 14.4 14.9 14.4 14.2 15.3 16.3 15.4 15.6 15.3
0.3 0.0 0.0 0.0 0.0 0.0 0.0 0.0 0.0 0.0 8.1 4.5 7.1 9.5 7.5 5.3 6.7 6.1 3.5 0.7 0.7 1.3 1.5 5.5 0.0 6.1 8.9 9.9 4.9 0.0 0.0 0.0 0.0 0.0 0.1 5.1 5.7 7.7 8.3 10.9 13.0 12.9 12.9 13.5 13.9 14.2 14.6 14.9 15.1 14.2 13.7 14.3 14.4 14.5
0.0 0.0 0.0 0.0 0.0 0.0 0.0 0.0 0.0 6.3 7.1 4.3 5.1 4.3 5.5 5.7 2.5 0.0 1.5 0.3 0.5 0.0 0.0 1.5 7.7 5.5 3.5 0.0 0.7 0.0 0.0 0.0 0.0 3.1 6.9 8.1 7.9 9.1 9.9 11.7 13.1 12.7 13.0 13.8 13.6 12.8 12.5 13.5 11.3 9.3 9.9 12.5 12.5 11.9
0.0 0.0 0.0 0.0 0.0 0.0 1.5 0.1 0.0 0.0 4.7 4.1 0.9 2.7 0.9 2.7 2.9 7.7 1.9 0.0 0.0 0.0 4.1 6.3 4.5 4.1 5.3 4.9 2.3 1.7 0.3 0.0 0.0 3.1 6.3 8.1 8.3 10.7 10.5 11.9 10.1 11.1 12.2 12.7 12.3 11.5 10.9 12.2 9.1 7.3 7.9 9.7 10.9 10.3
0.0 0.5 0.0 0.0 0.0 0.0 0.0 0.0 0.0 0.0 0.0 1.9 0.0 0.0 2.3 0.0 1.5 4.1 1.9 0.0 3.3 2.9 3.5 1.7 6.5 6.9 7.9 6.9 2.1 1.3 0.5 0.0 0.0 0.0 0.0 5.1 7.5 6.7 8.3 8.1 8.3 8.7 9.9 10.9 11.7 11.5 11.5 10.9 8.5 6.9 9.1 10.5 10.3 8.9
0.0 0.0 0.0 0.0 0.0 0.0 0.0 0.0 0.0 0.0 0.0 1.7 1.7 0.0 4.9 9.7 8.3 5.9 0.0 4.3 2.3 3.9 7.3 8.3 7.7 8.3 4.7 6.7 8.5 7.9 8.7 6.9 6.3 2.7 4.9 3.9 6.9 6.5 6.9 6.9 7.7 9.7 8.9 9.3 8.7 9.9 10.5 7.5 6.3 7.9 9.7 10.5 10.1 9.7
0.0 0.0 0.0 0.0 8.1 6.7 10.7 0.0 5.3 1.5 9.9 7.5 3.5 8.1 9.1 8.5 4.7 1.7 9.3 3.3 8.5 7.9 5.9 6.5 8.9 8.5 9.5 8.7 7.5 7.9 10.1 8.1 0.3 0.0 3.3 1.9 0.9 2.3 3.5 5.1 5.9 8.5 9.1 6.5 4.9 6.5 8.5 7.7 7.3 9.3 9.7 10.1 10.9 12.1
0.0 4.7 10.1 9.7 6.5 13.2 6.3 8.7 0.9 4.3 4.7 7.9 8.9 13.1 9.7 8.9 7.3 11.3 11.7 9.7 10.1 6.5 7.3 9.9 7.1 7.3 3.9 4.1 3.9 2.9 3.5 2.3 0.7 0.7 1.3 1.9 2.9 3.5 2.5 3.9 4.5 4.7 3.9 2.9 5.3 6.7 7.3 9.3 9.1 10.3 10.3 11.9 12.9 13.2
6.5 12.4 10.5 13.9 8.7 12.4 13.0 12.5 12.1 9.3 13.2 11.3 13.0 12.3 11.5 7.9 13.0 12.9 12.7 12.4 10.9 12.4 12.5 10.9 9.5 8.1 10.5 9.5 6.9 6.7 6.5 3.9 3.1 3.3 2.9 2.7 1.7 2.1 4.7 3.5 3.9 3.5 3.3 7.9 9.1 9.9 9.9 9.9 11.1 11.5 11.7 11.9 12.9 13.7
13.7 12.5 12.5 12.1 12.1 12.2 11.3 13.7 13.1 12.6 11.3 12.9 12.2 8.7 10.1 12.1 13.9 14.1 13.3 12.9 13.5 13.6 14.5 14.5 14.2 13.0 10.9 8.9 10.3 9.3 8.7 4.5 4.7 5.5 2.5 2.5 3.3 7.1 8.9 9.7 10.1 8.9 4.7 7.1 8.9 10.9 10.9 10.9 11.9 12.5 12.3 12.1 12.5 12.7
14.5 13.3 6.9 0.7 3.5 4.7 9.3 7.9 6.7 11.3 13.3 13.5 12.1 13.1 13.0 15.0 14.4 14.9 13.8 14.4 14.2 14.2 13.6 12.9 13.3 13.3 13.1 12.4 10.1 9.3 8.5 7.5 10.1 9.3 5.9 3.7 3.3 3.1 6.3 10.1 11.1 7.3 5.5 8.3 9.3 9.9 10.7 10.9 11.5 11.7 12.2 11.1 11.7 12.7
9.1 9.1 13.4 10.5 9.7 6.1 12.6 11.9 12.3 12.6 11.5 8.5 10.1 14.0 14.7 15.1 16.3 16.4 16.3 15.6 15.3 14.3 13.2 12.4 12.1 12.4 12.5 12.2 11.9 11.5 10.3 10.3 10.9 9.7 7.5 7.3 6.9 7.9 9.7 8.3 7.9 12.1 8.1 8.9 9.7 9.3 9.5 9.7 10.5 11.3 11.7 12.1 12.1 11.3
12.1 8.3 8.7 13.7 12.3 10.9 10.7 11.9 11.9 11.5 11.5 10.1 12.2 13.7 16.6 17.9 18.0 17.7 17.0 16.3 14.9 14.6 15.1 15.2 14.5 13.4 12.1 9.7 11.1 11.5 11.3 11.1 12.3 13.1 13.2 12.5 11.5 12.1 9.1 9.3 9.5 9.7 9.7 9.9 11.1 9.9 10.1 9.7 9.9 10.3 10.9 11.5 10.9 11.1
11.7 7.3 12.1 13.0 13.8 12.9 12.6 12.1 12.6 12.6 11.5 12.5 13.6 15.6 16.5 18.2 18.5 16.8 17.0 16.9 17.4 17.6 17.0 16.1 15.8 15.6 15.9 15.4 13.8 13.3 12.8 12.8 13.3 14.0 13.9 14.0 13.4 11.9 10.9 11.3 10.9 10.3 10.1 10.3 10.9 11.7 13.5 12.6 13.8 13.0 12.9 13.1 13.2 13.5
9.5 11.1 12.9 12.7 13.2 13.1 13.1 12.9 12.7 12.6 12.8 13.8 13.7 14.6 17.5 19.3 18.8 18.4 19.0 18.2 17.6 17.4 17.8 17.9 17.2 17.3 17.6 17.5 16.9 16.5 15.8 14.9 15.1 14.8 14.5 13.1 12.8 13.2 13.3 13.1 12.9 12.5 12.2 12.1 12.1 12.3 13.0 13.4 13.6 13.6 14.1 14.5 14.7 15.0
12.6 13.5 13.6 15.2 14.5 14.2 13.5 13.6 13.5 13.6 14.2 14.6 16.3 16.6 18.0 17.7 20.2 20.0 19.6 19.1 19.1 19.8 20.2 19.5 19.7 19.2 18.1 17.3 16.8 16.2 16.8 16.4 16.8 17.0 17.2 16.1 14.2 14.0 13.4 13.4 13.4 13.2 13.3 13.5 13.4 13.7 14.5 14.6 14.2 14.6 15.4 16.0 16.4 16.6
14.1 13.9 14.2 14.2 15.2 15.5 14.6 14.5 14.9 16.0 15.2 16.8 18.0 18.0 19.3 19.2 23.0 21.2 18.6 19.0 20.3 20.3 20.8 20.3 19.3 18.8 18.3 17.6 17.7 16.9 16.5 15.8 16.4 17.9 18.1 18.6 19.1 17.4 14.5 14.4 14.2 14.1 14.5 14.7 15.1 15.3 15.8 16.1 16.5 16.8 17.2 17.4 17.5 17.7